Location: Dayton
(39.7590°N, 84.1920°W)
Time: 03:56:38
(UTC-05:00)

Daily predictions for brighter satellites

Satellite Brightness Start Highest point End
(mag) Time Altitude Azimuth Time Altitude Azimuth Time Altitude Azimuth
USA 234 4.5 04:30:45 10° E 04:36:19 31° NNE 04:36:22 31° NNE
SL-16 R/B 4.0 04:38:28 25° NE 04:39:10 25° NE 04:43:49 10° ESE
Cosmos 2322 Rocket 3.9 04:42:20 25° NE 04:43:15 27° NE 04:48:00 10° ESE
Timation 2 Rocket 4.1 05:00:29 82° SE 05:00:36 82° ESE 05:07:30 10° NNE
Meteor 1-5 Rocket 4.5 05:05:35 10° S 05:10:55 61° E 05:16:10 10° NNE
Okean 1 Rocket 4.4 05:11:28 10° SSE 05:15:30 37° E 05:19:35 10° NNE
Okean-O 4.0 05:17:10 10° NNE 05:21:18 37° E 05:25:24 10° SSE
CZ-2C R/B 4.3 05:20:55 10° SSE 05:24:12 49° SSE 05:24:12 49° SSE
IRS-P2 Rocket 4.5 05:23:46 10° NNE 05:29:03 90° N 05:34:24 10° SSW
CZ-4C R/B 2.5 05:35:12 49° NNW 05:35:12 49° NNW 05:40:04 10° NNE
Cosmos 2360 Rocket 3.8 05:33:49 12° N 05:38:21 31° ENE 05:43:18 10° ESE
Cosmos 1980 Rocket 3.5 05:42:27 25° SSW 05:42:27 25° SSW 05:45:14 10° SSW
IDEFIX/ARIANE 42P 3.3 05:35:12 10° NNE 05:40:17 52° E 05:45:22 10° S
USA 267 3.5 05:38:29 10° NE 05:44:42 48° NNW 05:45:49 44° WNW
SKYMED 2 3.6 05:45:18 10° SSE 05:49:37 78° ENE 05:51:24 35° N
Meteor 1-23 Rocket 4.0 05:49:24 35° NNW 05:51:42 68° W 05:57:11 10° S
Cosmos 1515 3.5 05:53:10 86° NNW 05:53:15 90° SW 05:57:04 10° S
Cosmos 923 Rocket 3.9 05:51:40 10° SSW 05:56:55 90° ESE 06:02:10 10° NNE
APEX 3.2 05:57:24 31° S 05:58:56 74° ESE 06:03:06 10° NNE
Nadezhda 4 Rocket 4.1 05:59:00 10° SSW 06:04:49 45° WNW 06:10:40 10° N
ATLAS 5 CENTAUR R/B 4.5 06:02:01 10° N 06:05:33 16° NE 06:09:17 10° ENE
Cosmos 1184 Rocket 2.9 06:08:14 36° N 06:09:28 75° ENE 06:12:48 10° SSE
SeaSat 1 2.9 06:06:08 10° N 06:10:41 38° WNW 06:11:24 36° WNW
CZ-2C R/B 2.4 06:08:10 10° NNE 06:12:59 78° ESE 06:17:37 10° S
Cosmos 2112 Rocket 4.0 06:07:58 10° SSW 06:13:08 82° ESE 06:18:22 10° NNE
Cosmos 1025 Rocket 2.9 06:13:21 25° NNW 06:15:42 61° W 06:19:55 10° S
PAYLOAD A 4.0 06:11:03 10° N 06:16:28 70° WNW 06:21:42 10° SSW
USA 234 3.3 06:12:10 10° SE 06:18:44 83° NE 06:23:43 19° NW
Cosmos 1975 2.8 06:15:19 10° S 06:19:17 85° E 06:23:18 10° N
Cosmos 2285 Rocket 3.9 06:14:33 10° SSW 06:20:51 77° WNW 06:27:11 10° NNE
SL-16 R/B 2.5 06:20:23 24° NW 06:23:29 47° WSW 06:28:52 10° S
Okean 1-7 Rocket 3.6 06:21:34 10° NNW 06:26:04 65° W 06:30:34 10° S
Okean 2 3.7 06:25:28 26° NW 06:27:17 41° W 06:31:10 10° SSW
Cosmos 2322 Rocket 2.5 06:24:12 22° NW 06:27:28 45° WSW 06:32:49 10° S
SJ-12 3.8 06:28:21 10° NNE 06:32:26 89° E 06:36:30 10° SSW
SMAP 4.3 06:31:38 10° NNE 06:36:06 44° E 06:40:32 10° S
Cosmos 1743 2.6 06:33:13 10° S 06:37:01 87° E 06:40:51 10° N
COSMO-SKYMED 1 3.4 06:33:59 10° SSW 06:37:47 30° W 06:40:00 19° NW
S3M 4.3 06:32:39 10° N 06:38:52 73° E 06:45:09 10° SSE
EO 1 Del DPAF 4.1 06:36:19 10° SSW 06:39:40 29° W 06:41:17 21° WNW
Ariane Rocket 4.1 06:36:00 10° NNE 06:40:54 48° E 06:45:47 10° S
COSMOS 2441 4.3 06:38:51 10° N 06:43:39 68° WNW 06:48:24 10° SSW
Aureole 1 Rocket 3.8 06:44:08 10° S 06:46:59 39° ESE 06:50:16 10° NNE
Cosmos 1484 Rocket 2.9 06:43:48 10° NNE 06:47:40 74° ESE 06:51:27 10° S
Meteor 1-12 Rocket 4.2 06:43:51 10° SSW 06:49:31 69° W 06:55:10 10° N
Cosmos 1500 4.5 06:47:26 10° WSW 06:50:20 20° WNW 06:53:13 10° NNW
Okean 1 Rocket 4.4 06:50:35 10° WSW 06:53:33 18° WNW 06:56:32 10° NNW
ATLAS CENTAUR R/B 0.9 06:49:57 10° SW 06:53:40 76° WNW 06:57:21 10° NNE
MSX 3.9 06:48:11 10° N 06:53:48 57° WNW 06:59:22 10° SSW
Cosmos 2322 3.7 06:49:16 10° NNW 06:54:57 84° WSW 07:00:36 10° SSE
BREEZE-M DEB (TANK) 2.9 06:53:42 18° W 06:55:18 40° NNW 06:59:33 10° NE
Cosmos 389 Rocket 2.7 06:53:08 10° SSW 06:56:37 47° WNW 07:00:07 10° N
Okean-O 3.9 06:54:18 10° NNW 06:57:31 20° WNW 07:00:42 10° WSW
Cosmos 2026 Rocket 4.4 06:53:48 10° SW 06:59:38 40° WNW 07:05:35 10° N
Cosmos 1833 4.4 06:54:42 10° SW 07:00:02 46° WNW 07:05:25 10° NNE
Cosmos 2266 Rocket 4.2 06:56:40 10° S 07:02:43 73° E 07:08:44 10° N
Cosmos 1624 Rocket 4.1 06:57:58 10° NNW 07:03:21 86° WSW 07:08:40 10° SSE
GEOS 3 Rocket 3.8 06:58:02 10° NE 07:03:28 85° ESE 07:08:49 10° SW
Cosmos 1680 Rocket 4.3 07:02:11 10° WSW 07:06:39 28° WNW 07:11:10 10° N
Cosmos 1271 Rocket 2.9 07:05:18 10° SSW 07:08:55 46° WNW 07:12:33 10° N
Tiangong 1 3.1 07:07:46 10° SSW 07:09:50 23° SSE 07:11:56 10° E
Cosmos 1655 Rocket 4.3 07:04:34 10° SSW 07:10:32 46° WNW 07:16:35 10° N
Cosmos 1553 Rocket 4.1 07:05:43 10° NNW 07:11:45 55° W 07:17:40 10° SSW
Cosmos 1626 Rocket 3.9 07:07:25 10° N 07:11:46 69° E 07:16:05 10° SSE
Cosmos 1340 Rocket 2.7 07:09:17 10° NNW 07:13:14 74° W 07:17:12 10° S
Cosmos 1892 Rocket 4.2 07:09:47 10° NNW 07:13:47 35° W 07:17:44 10° SSW
YAOGAN 1 3.3 07:09:43 10° NNE 07:14:01 58° E 07:18:16 10° S
Aureole 2 Rocket 2.2 07:11:12 10° NNW 07:14:28 80° ENE 07:17:26 10° SSE
IDEFIX/ARIANE 42P 3.8 07:15:49 10° NNW 07:19:29 20° WNW 07:23:08 10° WSW
GPS 2-05 Rocket1 4.0 07:17:22 10° WSW 07:20:35 39° S 07:23:45 10° ESE
Cosmos 1666 3.6 07:18:57 10° SW 07:22:17 28° WNW 07:25:36 10° NNW
Cosmos 2360 Rocket 2.8 07:17:11 10° NW 07:22:23 38° WSW 07:27:33 10° S
BREEZE-M DEB (TANK) 4.0 07:21:16 10° WNW 07:23:37 27° N 07:28:33 10° ENE
Cosmos 2333 Rocket 3.1 07:18:33 10° NNW 07:24:11 51° ENE 07:29:44 10° SE
CZ-4C R/B 4.0 07:21:30 10° NW 07:24:19 14° NNW 07:27:20 10° N
Cosmos 1371 Rocket 4.4 07:20:55 10° NNW 07:25:49 43° WSW 07:30:40 10° S
USA 267 4.5 07:21:51 10° NNE 07:26:40 23° NNW 07:31:29 10° WNW
Meteor 1-21 4.3 07:21:26 10° NNW 07:26:56 60° W 07:32:28 10° S
COSMOS 2428 2.8 07:21:35 10° NNW 07:27:20 82° WSW 07:33:03 10° SSE
